Temp
58 58 58 58 57 56 56 55 55 54 54 55 55 54 54 56 56 56 55 56 57 57 57 57 57 57 56 55 55 55 54 54 54 53 52 52 51 51 52 52 52 52
58 57 56 57 56 55 54 54 52 53 54 54 53 53 53 54 53 54 54 54 55 56 56 56 56 56 56 55 54 54 53 53 53 53 52 52 52 52 52 52 52 52
55 55 54 53 52 52 53 53 53 52 53 53 52 51 52 52 52 51 52 52 53 53 53 54 54 54 54 53 54 54 52 51 51 52 52 52 52 51 51 51 51 51
53 53 52 51 51 52 53 53 52 52 52 52 52 52 51 51 50 50 50 49 50 49 49 51 51 52 53 54 54 53 53 51 51 52 50 50 51 51 51 51 50 50
51 51 51 51 51 51 49 50 49 49 49 50 49 49 49 49 48 47 46 46 47 47 47 48 48 49 48 48 49 48 49 49 50 51 49 49 50 50 50 50 49 48
49 48 48 49 48 48 49 49 50 50 49 49 48 47 47 46 44 45 45 45 44 45 45 45 45 45 46 46 46 45 46 47 49 49 48 47 48 48 49 49 48 48
48 48 48 48 48 47 48 48 47 46 46 46 44 44 44 43 43 43 43 43 43 43 43 43 44 45 45 45 44 44 45 45 45 47 45 45 45 47 48 47 47 47
47 46 46 46 45 44 44 44 43 43 43 42 43 43 42 42 42 42 42 42 42 42 43 44 44 46 45 46 45 45 46 49 48 46 47 47 46 47 46 47 46 46
44 43 43 42 42 41 41 41 41 41 41 40 40 41 40 41 41 41 41 41 41 42 44 44 45 44 45 45 45 45 45 46 46 45 46 45 45 46 46 46 46 45
43 41 41 40 40 40 39 39 40 40 40 40 40 40 42 41 42 40 39 39 40 41 43 43 44 44 44 44 45 45 45 45 45 45 45 45 45 45 45 44 44 44
41 40 40 39 39 38 37 38 38 38 38 40 39 38 39 38 39 38 38 39 40 41 42 42 42 43 43 43 44 43 44 44 44 44 44 44 44 44 42 43 43 43
40 39 38 36 36 36 37 37 37 37 36 37 37 38 37 37 37 37 38 39 38 38 38 38 38 39 40 41 42 42 42 43 43 43 43 43 43 43 43 43 43 43
38 37 37 36 36 37 38 37 37 36 36 37 36 37 36 36 35 36 35 37 37 38 38 37 37 37 38 38 38 39 40 40 40 40 40 41 41 41 41 42 42 42
36 36 36 36 36 36 36 36 36 35 35 35 35 35 36 35 36 36 35 36 36 37 36 37 36 36 35 35 36 37 37 37 38 38 39 39 39 40 40 40 41 41
37 36 35 35 35 35 35 36 35 34 34 34 34 34 37 35 35 35 35 35 34 35 36 36 38 38 37 36 35 34 34 35 35 36 36 36 37 38 39 39 40 40
36 35 35 35 36 36 35 35 34 34 34 34 35 35 35 35 35 36 35 35 36 35 34 37 38 38 39 40 40 36 34 35 36 35 34 35 36 36 37 38 38 38
35 35 35 36 35 35 34 35 35 34 34 35 35 35 35 35 35 35 35 34 35 35 35 36 37 38 40 42 43 42 36 34 34 34 34 34 34 35 35 36 36 37
35 35 36 35 35 34 34 34 34 34 34 34 34 34 35 34 34 33 33 33 34 33 33 35 35 38 41 42 42 42 41 36 34 34 34 34 34 34 35 35 35 36
35 35 35 35 34 33 33 33 33 32 32 32 33 32 31 33 31 32 32 32 32 32 33 34 33 38 41 41 41 41 41 39 34 33 33 33 34 34 34 35 35 35
34 34 33 33 32 32 31 30 31 31 30 30 30 30 29 30 30 30 30 31 31 31 32 33 34 37 40 41 40 41 41 40 33 33 33 33 33 34 34 34 34 34
33 32 32 30 30 28 28 28 29 28 29 29 30 30 30 32 32 32 32 31 30 29 30 33 35 38 40 40 40 41 41 40 33 33 32 32 33 33 34 34 34 35
31 30 29 28 28 28 28 28 28 28 29 30 30 31 31 30 31 29 31 32 32 31 31 31 33 38 39 39 40 40 41 36 32 32 32 32 33 33 33 33 34 34
29 28 28 27 27 27 27 28 29 29 29 30 30 30 30 30 30 30 31 31 31 31 31 31 31 35 38 39 39 40 38 33 31 31 31 31 32 33 33 33 34 34
28 27 26 26 25 27 27 26 27 26 26 29 27 29 29 30 30 30 30 30 31 31 31 31 32 33 37 38 39 39 38 33 32 31 31 31 32 33 33 32 33 34
26 26 25 24 25 25 26 25 26 26 28 27 28 26 28 29 30 30 30 30 30 30 31 31 31 32 36 38 39 39 37 32 31 30 30 31 32 33 33 33 33 33
24 25 23 23 22 22 23 23 25 27 25 24 26 27 27 27 28 29 28 29 29 29 30 29 30 31 32 38 39 40 40 36 32 29 30 32 32 32 32 33 34 34
MSLP
1020.43 1020.51 1020.65 1020.81 1020.95 1021.05 1021.17 1021.29 1021.37 1021.53 1021.67 1021.75 1021.87 1021.89 1021.89 1021.83 1021.83 1021.89 1021.97 1022.03 1022.05 1022.19 1022.39 1022.49 1022.51 1022.51 1022.49 1022.45 1022.45 1022.51 1022.55 1022.61 1022.65 1022.75 1022.85 1022.93 1022.99 1023.11 1023.15 1023.19 1023.29 1023.31
1020.45 1020.53 1020.67 1020.83 1020.99 1021.11 1021.17 1021.25 1021.35 1021.47 1021.57 1021.63 1021.65 1021.71 1021.73 1021.75 1021.79 1021.87 1021.99 1022.03 1022.09 1022.13 1022.17 1022.27 1022.35 1022.47 1022.55 1022.57 1022.53 1022.55 1022.57 1022.63 1022.67 1022.71 1022.81 1022.87 1022.93 1023.01 1023.05 1023.11 1023.13 1023.15
1020.71 1020.81 1020.95 1021.09 1021.17 1021.21 1021.29 1021.33 1021.37 1021.41 1021.43 1021.45 1021.51 1021.57 1021.63 1021.69 1021.75 1021.81 1021.93 1022.03 1022.07 1022.13 1022.23 1022.31 1022.31 1022.27 1022.29 1022.35 1022.43 1022.51 1022.55 1022.57 1022.61 1022.63 1022.67 1022.71 1022.75 1022.87 1022.89 1022.95 1022.99 1023.01
1020.87 1020.99 1021.13 1021.23 1021.23 1021.25 1021.29 1021.37 1021.47 1021.51 1021.53 1021.59 1021.65 1021.67 1021.69 1021.75 1021.83 1021.89 1021.95 1022.05 1022.13 1022.19 1022.21 1022.23 1022.31 1022.35 1022.29 1022.23 1022.19 1022.25 1022.27 1022.35 1022.41 1022.51 1022.61 1022.69 1022.75 1022.77 1022.79 1022.81 1022.81 1022.81
1020.75 1020.89 1021.03 1021.13 1021.19 1021.27 1021.37 1021.49 1021.61 1021.69 1021.79 1021.89 1021.91 1021.87 1021.85 1021.85 1021.93 1022.01 1022.09 1022.17 1022.21 1022.25 1022.27 1022.29 1022.29 1022.33 1022.31 1022.29 1022.27 1022.29 1022.31 1022.29 1022.23 1022.27 1022.41 1022.55 1022.61 1022.69 1022.67 1022.71 1022.69 1022.69
1020.89 1021.01 1021.13 1021.27 1021.35 1021.45 1021.55 1021.65 1021.69 1021.77 1021.87 1021.95 1022.09 1022.13 1022.17 1022.13 1022.11 1022.13 1022.19 1022.27 1022.29 1022.33 1022.35 1022.35 1022.35 1022.33 1022.33 1022.33 1022.29 1022.27 1022.29 1022.33 1022.29 1022.27 1022.29 1022.37 1022.47 1022.49 1022.47 1022.51 1022.57 1022.55
1021.05 1021.15 1021.29 1021.39 1021.53 1021.63 1021.73 1021.75 1021.83 1021.91 1022.05 1022.15 1022.23 1022.33 1022.37 1022.37 1022.31 1022.37 1022.45 1022.49 1022.49 1022.51 1022.57 1022.59 1022.57 1022.49 1022.39 1022.35 1022.33 1022.33 1022.31 1022.31 1022.31 1022.33 1022.35 1022.37 1022.39 1022.33 1022.31 1022.33 1022.35 1022.29
1021.25 1021.37 1021.49 1021.59 1021.71 1021.83 1021.93 1022.01 1022.09 1022.23 1022.31 1022.35 1022.45 1022.53 1022.59 1022.59 1022.51 1022.51 1022.59 1022.67 1022.71 1022.69 1022.65 1022.71 1022.75 1022.77 1022.77 1022.71 1022.61 1022.49 1022.41 1022.35 1022.33 1022.31 1022.29 1022.29 1022.27 1022.23 1022.19 1022.17 1022.19 1022.19
1021.59 1021.75 1021.81 1021.87 1021.97 1022.13 1022.23 1022.29 1022.35 1022.43 1022.51 1022.61 1022.67 1022.73 1022.77 1022.77 1022.69 1022.65 1022.73 1022.81 1022.91 1022.95 1022.95 1022.95 1022.99 1023.01 1022.97 1022.95 1022.91 1022.85 1022.75 1022.63 1022.57 1022.53 1022.49 1022.45 1022.37 1022.25 1022.21 1022.19 1022.19 1022.15
1021.85 1021.95 1022.01 1022.11 1022.31 1022.49 1022.47 1022.45 1022.51 1022.61 1022.71 1022.85 1022.89 1022.91 1022.97 1022.91 1022.79 1022.79 1022.89 1023.03 1023.19 1023.27 1023.29 1023.27 1023.21 1023.17 1023.13 1023.11 1023.09 1023.05 1022.97 1022.87 1022.77 1022.69 1022.61 1022.55 1022.49 1022.37 1022.31 1022.31 1022.27 1022.21
1021.97 1022.13 1022.25 1022.43 1022.63 1022.69 1022.65 1022.67 1022.75 1022.87 1022.97 1023.05 1023.07 1023.09 1023.11 1023.03 1022.93 1022.91 1022.99 1023.09 1023.23 1023.35 1023.43 1023.47 1023.41 1023.37 1023.37 1023.35 1023.27 1023.19 1023.13 1023.05 1022.99 1022.91 1022.83 1022.73 1022.61 1022.53 1022.49 1022.51 1022.47 1022.35
1022.25 1022.45 1022.71 1022.91 1022.97 1022.95 1022.87 1022.85 1022.93 1023.05 1023.15 1023.19 1023.23 1023.25 1023.21 1023.13 1023.07 1023.07 1023.09 1023.15 1023.23 1023.25 1023.31 1023.33 1023.31 1023.29 1023.31 1023.29 1023.27 1023.23 1023.17 1023.11 1023.05 1022.97 1022.89 1022.79 1022.69 1022.63 1022.59 1022.53 1022.47 1022.35
1022.79 1023.05 1023.15 1023.19 1023.17 1023.11 1023.05 1023.01 1023.09 1023.21 1023.29 1023.37 1023.37 1023.33 1023.31 1023.27 1023.27 1023.27 1023.27 1023.29 1023.29 1023.31 1023.31 1023.29 1023.25 1023.23 1023.21 1023.17 1023.17 1023.15 1023.11 1023.09 1023.05 1022.99 1022.91 1022.83 1022.67 1022.57 1022.49 1022.41 1022.31 1022.23
1023.23 1023.23 1023.19 1023.21 1023.29 1023.29 1023.23 1023.23 1023.31 1023.35 1023.45 1023.51 1023.49 1023.45 1023.45 1023.47 1023.47 1023.47 1023.45 1023.43 1023.37 1023.33 1023.31 1023.25 1023.23 1023.21 1023.21 1023.21 1023.21 1023.19 1023.15 1023.09 1023.05 1022.97 1022.87 1022.75 1022.55 1022.41 1022.31 1022.19 1022.09 1021.97
1023.15 1023.15 1023.23 1023.41 1023.55 1023.49 1023.41 1023.43 1023.49 1023.57 1023.63 1023.63 1023.61 1023.59 1023.55 1023.53 1023.51 1023.45 1023.39 1023.35 1023.35 1023.35 1023.33 1023.31 1023.27 1023.25 1023.23 1023.23 1023.21 1023.19 1023.19 1023.17 1023.11 1023.05 1022.97 1022.83 1022.59 1022.35 1022.15 1022.01 1021.85 1021.73
1023.11 1023.19 1023.35 1023.49 1023.47 1023.41 1023.49 1023.59 1023.63 1023.69 1023.65 1023.59 1023.57 1023.57 1023.53 1023.49 1023.43 1023.43 1023.43 1023.43 1023.41 1023.41 1023.43 1023.43 1023.41 1023.33 1023.25 1023.17 1023.19 1023.21 1023.21 1023.23 1023.17 1023.13 1023.03 1022.87 1022.63 1022.29 1021.95 1021.79 1021.63 1021.47
1023.21 1023.27 1023.37 1023.41 1023.55 1023.57 1023.61 1023.65 1023.69 1023.71 1023.69 1023.63 1023.61 1023.63 1023.63 1023.63 1023.63 1023.57 1023.59 1023.61 1023.61 1023.57 1023.51 1023.49 1023.49 1023.43 1023.27 1023.15 1023.09 1023.07 1023.13 1023.17 1023.13 1022.99 1022.93 1022.79 1022.59 1022.35 1021.97 1021.61 1021.41 1021.25
1023.33 1023.33 1023.35 1023.55 1023.59 1023.67 1023.73 1023.83 1023.87 1023.85 1023.89 1023.87 1023.83 1023.83 1023.85 1023.89 1023.83 1023.83 1023.81 1023.79 1023.75 1023.75 1023.73 1023.67 1023.59 1023.49 1023.29 1023.13 1023.05 1023.03 1023.03 1023.03 1023.01 1022.95 1022.79 1022.65 1022.45 1022.21 1021.89 1021.63 1021.33 1021.07
1023.41 1023.39 1023.55 1023.71 1023.93 1024.05 1024.13 1024.17 1024.21 1024.25 1024.23 1024.17 1024.13 1024.17 1024.17 1024.13 1024.11 1024.07 1023.97 1023.97 1023.95 1023.89 1023.77 1023.65 1023.53 1023.41 1023.25 1023.07 1022.97 1022.89 1022.85 1022.79 1022.77 1022.73 1022.65 1022.43 1022.25 1022.03 1021.77 1021.51 1021.29 1021.07
1023.63 1023.71 1023.89 1024.13 1024.33 1024.45 1024.51 1024.53 1024.57 1024.57 1024.59 1024.49 1024.41 1024.39 1024.39 1024.37 1024.29 1024.17 1024.09 1024.01 1023.99 1023.93 1023.81 1023.65 1023.41 1023.21 1023.13 1022.95 1022.79 1022.65 1022.55 1022.51 1022.49 1022.45 1022.35 1022.17 1021.97 1021.75 1021.53 1021.33 1021.19 1021.03
1023.97 1024.13 1024.37 1024.57 1024.67 1024.75 1024.77 1024.75 1024.79 1024.79 1024.69 1024.57 1024.51 1024.51 1024.47 1024.37 1024.23 1024.09 1023.99 1023.95 1023.91 1023.93 1023.91 1023.73 1023.45 1023.15 1023.03 1022.87 1022.65 1022.41 1022.25 1022.25 1022.29 1022.25 1022.13 1021.89 1021.67 1021.49 1021.33 1021.13 1020.91 1020.71
1024.37 1024.53 1024.69 1024.81 1024.89 1024.91 1024.87 1024.85 1024.87 1024.85 1024.65 1024.55 1024.51 1024.47 1024.47 1024.41 1024.25 1024.19 1024.03 1023.89 1023.87 1023.87 1023.85 1023.77 1023.53 1023.23 1023.03 1022.83 1022.63 1022.37 1022.17 1022.19 1022.21 1022.11 1021.93 1021.71 1021.39 1021.15 1021.01 1020.83 1020.63 1020.43
1024.63 1024.79 1024.89 1024.97 1024.99 1024.93 1024.85 1024.81 1024.73 1024.65 1024.63 1024.59 1024.57 1024.55 1024.51 1024.43 1024.37 1024.31 1024.19 1024.09 1023.93 1023.87 1023.79 1023.63 1023.49 1023.21 1022.97 1022.73 1022.55 1022.31 1022.17 1022.17 1022.11 1022.03 1021.85 1021.57 1021.19 1020.81 1020.65 1020.45 1020.21 1019.97
1024.83 1024.95 1024.99 1025.01 1024.93 1024.87 1024.89 1024.89 1024.89 1024.87 1024.83 1024.81 1024.87 1024.81 1024.67 1024.51 1024.45 1024.33 1024.19 1024.03 1023.89 1023.75 1023.65 1023.45 1023.17 1023.05 1022.89 1022.59 1022.37 1022.23 1022.15 1022.05 1021.97 1021.91 1021.65 1021.43 1020.97 1020.55 1020.27 1020.11 1019.79 1019.49
1024.97 1025.05 1025.11 1025.09 1025.03 1025.03 1025.05 1025.03 1025.03 1025.03 1024.99 1024.99 1025.01 1025.01 1024.87 1024.65 1024.45 1024.27 1024.15 1024.05 1023.85 1023.63 1023.43 1023.29 1022.97 1022.79 1022.75 1022.51 1022.21 1022.07 1022.03 1021.99 1021.91 1021.87 1021.65 1021.17 1020.75 1020.21 1019.83 1019.63 1019.39 1019.17
1025.09 1025.19 1025.23 1025.21 1025.21 1025.21 1025.23 1025.25 1025.25 1025.19 1025.09 1025.11 1025.09 1025.03 1024.83 1024.55 1024.41 1024.29 1024.05 1023.81 1023.61 1023.37 1023.15 1022.99 1022.79 1022.55 1022.55 1022.41 1022.15 1021.93 1021.83 1021.77 1021.77 1021.75 1021.51 1021.01 1020.63 1020.29 1019.81 1019.29 1019.05 1018.71
Wind_Speed
4 4 3 4 3 2 1 3 3 2 2 2 4 3 5 6 5 6 4 4 5 4 3 4 5 5 3 3 3 4 4 4 4 3 4 5 6 6 8 8 7 7
4 3 4 3 3 2 3 2 2 3 4 4 4 3 2 1 2 1 1 3 3 4 3 4 4 4 4 3 2 3 3 3 5 3 4 5 6 5 7 7 8 7
3 3 3 3 3 4 4 4 4 3 1 0 1 3 3 3 4 4 4 3 3 1 2 4 4 4 5 4 4 4 3 3 3 4 4 6 5 6 6 6 6 8
5 5 4 4 3 1 0 0 1 1 1 1 1 1 2 2 3 3 3 3 3 3 3 3 3 3 4 5 5 5 5 5 4 3 3 4 5 5 6 5 6 6
3 3 2 2 1 1 2 2 2 2 2 2 3 3 2 2 2 3 2 3 2 3 4 3 3 4 4 3 1 2 3 4 3 4 4 4 5 5 5 5 6 7
4 4 3 3 3 2 1 1 0 1 1 2 2 3 4 4 4 3 3 3 3 3 3 3 3 3 3 4 4 3 3 3 3 2 2 3 5 4 4 5 5 7
4 4 3 3 3 2 1 2 3 3 3 3 3 3 3 3 3 4 4 4 4 4 4 4 4 5 4 3 3 3 3 3 3 3 4 4 4 5 4 5 6 8
5 4 4 4 4 3 3 4 4 4 4 4 3 2 3 3 3 3 4 4 4 4 4 4 4 5 5 6 5 4 4 3 3 4 5 5 4 5 4 4 4 7
5 4 4 4 4 4 4 4 4 4 4 4 3 3 3 2 3 3 4 4 4 5 5 4 4 4 5 5 5 5 5 4 4 4 4 4 5 6 5 5 6 7
5 4 4 4 4 4 4 4 4 3 3 2 2 2 1 2 2 3 4 4 3 4 4 4 4 4 3 3 4 5 6 6 6 5 5 6 6 6 6 5 7 8
5 5 6 5 4 4 4 4 3 3 2 1 2 3 3 3 3 3 2 1 1 1 2 2 3 4 4 4 4 4 4 5 5 5 6 6 6 7 7 6 7 8
6 6 5 4 4 4 4 4 4 4 4 3 3 2 3 3 3 3 1 0 0 1 1 2 2 2 3 3 3 4 4 5 5 6 6 6 6 6 7 6 8 9
5 4 3 3 3 4 4 4 4 4 4 3 2 1 2 3 3 3 3 2 2 1 1 2 3 2 2 3 3 3 4 4 5 5 6 6 6 7 7 7 8 9
4 3 4 4 4 4 4 4 4 4 4 3 3 3 3 2 3 2 3 2 3 3 3 3 4 4 4 4 4 4 4 4 4 6 7 7 6 7 7 8 8 8
4 4 4 4 4 4 5 5 5 4 4 3 3 4 3 3 3 4 4 4 4 4 4 4 4 4 4 3 4 4 4 4 5 6 6 7 8 8 8 8 8 8
4 5 5 4 5 6 6 5 5 4 4 4 5 4 5 4 5 5 5 5 5 5 4 4 4 3 5 7 6 4 4 5 6 6 6 7 8 9 10 8 8 8
4 5 5 7 5 5 5 6 5 5 5 5 5 5 5 5 5 5 5 4 5 5 5 5 4 4 8 9 9 8 5 4 5 7 6 7 7 8 10 10 9 8
4 5 7 6 7 7 6 5 5 6 6 5 5 6 5 4 5 4 4 4 4 4 4 5 5 6 10 9 9 8 8 6 5 6 7 7 8 9 9 9 10 10
5 7 7 7 6 6 5 5 5 5 6 5 5 4 4 4 4 4 4 4 3 4 5 6 5 6 9 10 11 10 10 8 6 6 7 8 8 9 9 9 9 9
6 6 6 5 4 4 4 4 4 4 4 3 3 4 4 4 4 4 4 4 4 4 5 6 7 8 11 12 12 12 11 8 5 5 6 7 8 9 9 9 8 9
6 5 5 4 4 4 3 4 4 3 4 3 3 4 4 5 5 6 5 5 5 4 4 6 7 12 13 13 14 14 15 10 5 6 6 7 8 7 8 8 9 9
5 4 4 3 3 3 3 4 3 3 4 4 4 4 4 4 5 4 5 6 6 5 5 6 7 11 13 13 14 13 14 8 6 7 7 8 9 8 8 8 8 9
4 3 3 3 2 3 4 4 5 5 5 4 5 5 5 5 4 4 5 6 6 5 6 6 6 9 12 13 13 14 10 7 6 6 7 8 9 9 8 8 8 8
3 3 3 3 3 4 4 4 4 3 3 3 4 5 5 5 5 5 5 5 5 6 6 7 7 7 10 12 13 13 10 8 7 7 8 8 10 9 8 7 9 14
3 3 3 3 4 3 3 4 4 3 4 3 4 4 5 5 5 5 5 5 5 6 8 7 7 7 8 10 12 11 8 6 6 6 8 9 10 11 10 8 8 9
3 4 3 4 3 4 3 3 3 3 4 3 4 4 4 4 4 5 5 5 5 5 5 5 6 7 5 9 11 12 12 7 5 6 8 11 11 11 11 11 11 10
Wind_Direction
187 171 173 183 196 184 204 187 186 187 209 213 226 236 218 237 236 215 213 211 197 203 253 310 329 317 286 254 240 244 242 244 250 239 231 230 238 237 242 243 238 236
170 147 155 155 178 202 234 211 206 190 211 216 221 226 257 5 17 99 205 217 217 224 214 208 216 254 290 296 265 248 255 249 255 234 239 240 244 240 248 250 249 248
162 166 167 190 206 199 201 214 213 214 195 236 31 29 4 23 10 10 14 12 358 329 212 225 235 223 218 232 245 241 243 250 254 240 234 243 243 239 245 245 246 246
172 171 173 196 207 216 221 78 13 19 22 21 358 350 46 13 9 355 351 347 346 325 318 323 287 258 239 228 218 218 218 224 221 218 242 260 256 251 251 248 253 257
125 125 110 124 111 80 59 55 25 18 24 15 6 4 25 13 12 9 3 344 336 318 325 320 322 320 321 314 286 262 263 248 235 207 219 244 250 248 259 253 256 255
72 79 75 71 72 76 65 87 90 55 37 21 0 23 24 27 25 7 347 341 329 340 331 326 323 310 327 326 331 320 303 291 276 263 251 245 251 230 234 238 252 260
111 97 88 85 77 73 61 54 54 55 47 46 42 17 23 15 22 17 16 5 2 2 3 353 349 336 329 330 329 318 312 304 307 316 303 290 278 269 253 243 244 251
81 71 67 63 63 68 64 58 50 48 45 37 45 347 32 13 31 32 21 14 6 1 7 5 359 356 353 0 349 342 328 317 303 289 278 274 273 275 274 266 260 260
74 67 72 75 73 70 65 58 47 38 41 41 22 5 2 29 23 41 41 27 18 7 5 4 357 349 346 349 345 344 335 325 325 321 305 299 293 280 279 286 287 283
86 82 66 68 76 70 66 55 46 41 46 31 12 6 351 330 29 63 57 48 28 7 358 349 342 325 321 321 318 322 319 314 315 312 306 300 294 291 288 283 273 276
72 64 65 60 68 63 60 58 49 47 40 47 30 16 14 24 4 49 72 79 77 13 321 325 322 333 337 334 327 324 316 313 313 310 305 298 291 290 290 290 288 279
63 60 61 64 66 63 66 63 57 50 44 29 50 29 1 15 38 8 39 315 222 231 226 254 263 269 275 279 284 291 292 291 288 286 287 288 288 287 285 280 277 279
71 78 83 82 77 72 63 59 57 52 50 32 10 39 42 23 11 22 350 26 334 347 297 277 285 288 292 298 305 307 305 307 305 301 294 291 284 280 278 274 272 273
113 111 91 74 67 64 63 59 56 49 38 19 36 36 37 28 10 15 333 359 327 332 311 315 319 321 317 311 305 300 303 298 298 295 293 288 284 278 275 273 271 270
97 81 71 69 68 66 57 49 46 39 31 33 34 32 18 17 12 15 6 357 352 349 340 336 333 314 296 290 294 300 303 301 298 298 298 299 296 292 285 281 278 273
78 74 74 72 58 52 46 42 38 27 26 25 23 20 13 5 10 4 11 360 352 345 344 338 322 308 299 291 283 275 287 292 295 290 289 286 290 292 290 282 278 276
67 64 65 55 48 48 39 35 25 21 23 20 16 14 8 359 3 0 356 350 345 336 332 326 316 308 302 302 301 293 282 282 284 290 287 285 282 284 286 292 288 280
59 62 57 49 42 34 29 25 23 27 22 14 13 10 358 358 0 348 341 341 339 338 328 316 314 312 313 316 316 313 305 288 277 279 285 281 282 281 283 286 289 290
55 57 56 48 39 31 24 25 31 28 20 12 7 349 360 9 339 352 338 343 356 339 325 318 314 315 319 317 315 311 305 296 277 270 274 278 277 278 280 284 288 291
58 57 54 46 39 34 28 33 38 26 5 344 356 0 4 345 340 341 337 342 339 332 322 319 314 315 317 315 313 311 309 306 281 279 274 273 275 278 280 284 284 286
60 61 57 45 37 36 38 39 37 16 10 348 5 357 357 347 342 342 334 331 329 327 321 313 304 306 312 312 313 313 312 317 301 295 288 282 279 275 277 278 281 279
66 64 57 49 42 36 45 34 31 18 1 340 360 349 348 347 334 337 325 319 311 312 306 292 288 292 297 298 299 299 304 307 303 296 293 289 286 284 277 275 273 273
70 71 66 48 38 44 37 22 12 359 352 354 358 344 338 330 311 301 291 291 290 290 288 281 282 284 287 290 292 296 300 298 295 291 288 286 284 284 280 276 272 266
70 66 65 39 38 32 19 2 353 345 329 340 344 321 316 298 291 286 282 277 283 284 276 283 287 286 287 292 293 292 290 292 295 297 291 291 290 287 284 276 272 273
64 53 45 33 30 8 6 352 335 317 299 321 308 289 281 281 281 287 289 287 276 274 278 278 287 296 297 294 297 296 296 288 289 292 297 298 301 301 300 293 286 282
39 50 27 22 5 348 346 326 303 308 299 300 292 276 269 282 289 289 289 291 288 286 292 283 296 305 311 314 313 319 322 311 284 295 297 299 301 302 306 305 304 302